Theta_e
351 352 349 351 350 351 349 349 345 343 346 345 344 342 342 341 340 338 341 343 349 347 348 352 353 353 353 353 351 343 336 339 337 341 351 350 347 345 346 347 348 351 351
350 352 349 352 353 353 347 349 351 350 348 347 347 346 346 343 347 341 343 347 353 353 354 354 351 349 349 349 347 349 351 349 349 349 348 353 352 345 346 345 344 348 351
350 350 351 349 351 352 351 350 345 353 352 353 349 348 351 349 349 347 349 347 352 354 354 353 351 351 351 342 339 345 346 347 348 348 344 344 347 352 351 351 350 347 343
349 350 350 350 352 353 353 351 347 352 352 352 351 350 349 352 352 352 354 353 351 354 355 354 354 353 346 340 340 347 348 349 349 348 345 347 351 352 351 348 349 349 346
350 351 349 350 351 351 351 353 353 350 350 350 350 353 349 351 351 354 354 355 352 351 352 351 352 352 348 343 342 348 349 349 349 347 345 344 346 347 346 348 348 348 346
349 350 351 351 352 353 350 349 351 351 350 348 351 352 351 351 353 352 354 354 353 353 354 354 353 351 338 340 343 345 346 349 347 345 345 346 346 345 344 344 344 344 344
349 351 352 351 351 351 351 349 351 351 353 350 353 352 348 351 352 352 353 353 352 353 352 353 352 339 335 336 343 343 345 349 349 346 345 347 346 347 348 347 344 343 339
348 350 351 351 351 351 352 351 352 352 353 352 352 350 349 353 350 352 350 351 350 351 351 350 347 343 338 339 342 344 348 349 346 345 346 347 348 347 348 348 347 347 347
347 348 351 352 352 353 352 351 352 352 353 350 346 344 349 353 352 354 351 350 350 350 351 347 343 342 338 342 345 345 347 346 344 342 342 341 339 345 347 346 344 345 345
345 347 348 350 351 352 352 353 348 351 352 351 346 347 347 348 349 345 347 350 351 350 346 342 340 338 337 342 343 344 345 346 343 342 337 337 341 336 336 336 335 335 337
345 347 347 345 350 350 351 351 350 351 350 346 340 343 343 346 347 351 347 349 348 347 342 340 340 337 340 341 342 343 345 342 341 341 331 330 331 329 332 331 326 326 326
344 345 343 346 347 347 345 347 344 345 349 350 349 345 349 350 348 351 343 344 345 342 340 340 339 340 348 348 345 346 346 341 339 339 331 330 331 326 327 328 322 318 316
342 344 343 345 347 345 348 349 348 350 351 346 347 349 349 348 350 349 343 345 341 339 340 343 346 349 351 350 348 343 341 340 339 340 335 333 330 332 331 330 330 326 322
344 345 345 346 347 350 351 351 352 348 351 352 348 350 348 351 348 347 348 348 346 347 343 345 348 348 343 343 343 341 341 343 343 339 338 336 335 333 333 333 332 332 331
345 346 348 349 349 351 345 348 351 347 351 350 348 349 349 349 349 350 349 348 348 349 347 346 345 350 347 346 345 344 343 345 346 347 343 343 340 337 336 334 334 334 333
344 349 348 351 351 352 352 348 348 347 350 351 350 348 349 349 349 351 349 349 347 347 346 345 348 350 350 345 344 347 346 345 346 351 350 349 346 344 340 338 336 335 334
344 349 349 349 350 354 354 355 353 352 350 354 350 353 350 348 350 350 350 346 347 348 348 348 350 347 346 342 345 346 346 346 346 347 350 351 349 348 346 343 342 340 337
344 349 349 349 351 353 349 353 351 350 352 353 352 352 352 351 351 351 346 346 346 343 346 347 349 349 347 345 346 344 345 346 346 347 346 347 349 351 349 347 346 346 341
346 349 347 350 351 351 353 353 352 355 353 350 352 353 353 353 353 351 347 347 346 350 350 348 349 347 344 346 346 345 346 346 347 348 347 350 350 347 350 349 347 348 347
346 348 349 351 351 353 348 354 353 352 354 351 352 353 352 352 353 353 352 346 350 356 347 352 351 348 348 346 348 345 345 346 348 349 348 349 350 348 349 350 350 351 350
347 351 352 353 350 354 352 353 352 351 354 354 355 353 355 352 351 353 353 344 350 358 353 351 346 344 349 349 352 353 347 346 347 347 342 343 345 346 348 348 350 352 349
349 352 351 357 351 355 351 352 353 352 354 357 356 356 357 354 353 356 351 350 355 354 352 351 355 354 349 347 351 350 362 350 344 341 340 340 338 342 342 345 347 347 350
350 353 353 357 350 355 350 352 353 353 353 354 353 351 356 357 352 355 354 354 354 356 352 354 352 351 353 351 345 351 361 360 349 343 340 340 340 342 342 343 345 345 346
351 353 354 357 351 354 356 354 353 354 355 353 354 352 352 356 354 356 353 356 355 353 354 353 354 353 351 351 352 348 345 345 352 348 342 341 343 343 343 343 343 346 345
350 353 356 357 356 354 357 354 354 353 352 348 349 350 351 352 354 353 353 353 353 349 354 353 354 349 353 349 347 345 346 345 345 343 350 345 340 342 343 343 344 347 349
350 352 356 357 359 355 357 357 352 352 354 351 351 355 352 353 354 355 353 355 358 355 352 349 355 355 350 354 352 346 342 343 344 346 348 342 344 343 343 343 344 346 347
Wind_Speed
17 16 16 15 15 16 15 15 16 14 14 13 13 17 17 16 18 20 23 21 22 22 19 19 19 18 18 19 18 22 23 23 24 24 22 20 19 17 16 15 16 15 14
19 16 16 15 14 15 15 15 16 14 14 14 13 16 16 16 16 17 19 19 21 21 20 20 20 19 19 21 19 18 18 20 21 22 22 21 18 17 16 15 15 13 14
21 17 14 14 14 14 14 14 14 13 12 14 14 15 16 15 15 16 17 17 20 20 19 19 20 20 20 20 19 18 16 15 13 10 18 18 18 16 16 15 14 13 13
21 18 14 16 13 14 14 12 12 12 12 13 14 14 16 16 15 15 16 17 18 18 17 17 18 18 18 18 18 17 15 16 19 22 19 18 15 15 15 14 13 12 12
22 19 16 14 13 13 12 12 13 13 14 14 14 14 15 16 16 16 16 16 16 16 16 16 15 14 12 12 15 15 16 18 21 19 21 20 15 14 13 14 13 12 11
23 20 17 16 15 13 13 13 15 15 13 16 15 14 16 15 15 16 15 16 16 15 14 14 14 12 13 14 16 15 13 13 21 23 20 17 14 14 14 15 13 11 10
21 19 16 17 16 15 15 16 15 15 14 15 14 14 14 15 15 15 15 15 15 14 14 13 13 14 15 15 16 13 15 22 21 19 18 15 14 14 13 13 12 11 10
23 19 17 17 17 17 17 17 15 15 14 13 14 13 13 14 15 15 14 14 14 14 14 14 14 14 15 15 13 12 16 17 18 19 16 14 13 12 12 12 10 9 8
24 19 18 17 17 16 15 16 15 14 14 13 13 14 13 13 14 14 14 14 14 13 13 13 13 14 16 14 12 11 15 17 21 20 15 13 14 13 13 11 9 10 9
22 22 22 18 17 16 14 15 15 14 12 11 11 11 12 12 13 14 14 14 12 12 11 11 11 14 18 17 14 12 11 17 19 16 13 14 11 10 11 11 10 10 10
22 24 22 18 18 18 14 14 14 13 12 10 10 11 12 11 13 11 12 12 12 10 9 10 11 11 12 13 12 10 12 20 18 13 11 12 12 12 12 12 11 11 11
19 21 18 20 18 17 13 15 12 13 11 9 7 7 7 10 13 12 10 11 10 9 9 10 11 10 6 2 4 3 5 16 15 11 12 11 12 12 12 12 12 12 13
17 23 18 17 21 19 15 14 14 10 11 12 7 13 13 13 17 9 12 10 10 10 7 8 4 1 3 7 8 5 11 21 18 13 12 11 10 10 11 11 11 12 12
16 23 23 15 23 19 15 15 14 11 11 15 11 13 16 15 14 11 14 10 11 9 7 2 0 6 9 11 6 9 11 11 13 14 13 9 8 8 8 8 8 9 10
16 19 24 17 16 19 11 12 6 9 15 14 12 15 15 17 13 13 16 12 13 10 7 8 8 1 6 6 5 7 9 8 8 8 11 8 6 6 6 6 5 5 6
17 20 17 16 14 15 8 9 15 13 15 19 18 16 16 11 17 12 15 11 14 10 5 8 3 3 7 6 6 2 8 9 7 5 5 5 4 3 4 4 3 2 1
20 20 17 16 13 11 11 9 12 20 17 19 18 13 13 15 16 13 9 12 9 10 8 7 7 5 4 7 7 4 7 7 8 2 4 3 5 4 2 2 2 2 2
21 23 19 18 17 12 9 9 6 17 18 19 16 15 13 11 12 10 14 12 9 13 11 9 9 11 5 4 4 4 3 6 2 4 4 4 2 4 7 4 2 3 4
22 23 19 21 20 14 12 5 13 10 18 18 16 15 14 11 9 12 14 13 14 13 13 9 3 6 4 2 6 7 4 2 2 7 2 5 6 4 5 5 4 7 8
23 21 18 21 22 19 15 12 8 11 6 18 22 19 17 12 9 4 16 11 13 10 6 9 6 2 4 5 12 5 4 2 3 6 4 6 7 2 6 4 6 11 10
23 23 19 19 24 17 15 12 13 11 3 17 22 16 17 13 11 7 9 12 10 2 9 6 2 1 6 6 10 17 12 6 5 3 5 2 2 4 2 8 9 7 7
26 23 23 20 24 20 17 16 14 13 12 20 18 16 17 13 12 6 11 9 6 9 8 4 3 6 6 2 7 11 2 4 6 5 3 3 5 3 3 3 3 8 7
27 25 25 23 24 21 19 16 10 9 10 15 18 13 15 15 11 8 11 7 6 5 9 8 5 5 6 1 3 3 3 3 13 7 7 3 3 2 1 3 4 4 7
28 27 26 21 25 23 16 16 15 15 18 19 23 19 16 14 12 9 9 5 8 3 13 10 6 3 4 7 3 3 3 1 2 4 3 5 2 3 2 4 4 9 6
30 28 28 24 25 22 18 16 17 15 16 18 16 23 21 15 16 14 11 8 7 9 7 7 7 10 3 4 9 8 0 3 6 4 4 13 14 8 2 4 7 3 8
31 30 31 28 26 24 20 16 20 22 14 18 28 22 23 19 14 13 16 12 9 7 5 8 7 7 9 6 5 4 6 7 3 3 3 13 15 14 6 5 7 4 8
Wind_Direction
119 123 119 114 111 108 109 103 97 97 96 93 96 89 90 90 88 91 90 93 100 99 109 108 103 101 99 96 91 95 96 95 94 93 87 84 85 91 91 84 82 85 92
123 125 124 118 114 112 111 105 101 96 95 95 95 99 99 96 92 90 88 94 96 101 101 96 97 98 100 95 95 99 99 95 92 86 81 80 77 84 92 96 90 93 90
119 123 123 119 116 112 108 104 104 96 94 95 97 102 104 100 94 95 94 95 94 96 93 95 94 89 90 95 98 98 90 87 94 99 90 80 79 76 77 82 83 82 84
121 121 123 132 129 119 116 111 103 97 95 96 98 101 107 102 100 96 94 93 95 95 95 95 91 90 93 94 98 98 91 78 84 80 93 88 79 73 72 73 79 81 76
121 117 118 127 127 115 109 108 108 104 101 99 100 102 102 101 102 102 100 98 94 100 93 93 94 89 92 97 102 98 90 78 86 85 88 82 76 69 73 80 68 73 80
113 115 118 122 126 120 117 115 115 111 108 108 101 98 97 102 101 104 105 106 101 96 94 96 89 80 90 95 106 98 83 95 104 88 72 71 75 72 70 70 72 74 79
112 115 121 123 125 122 118 115 114 116 109 109 105 103 107 108 107 101 103 102 100 99 96 95 90 91 89 100 108 104 66 83 97 79 79 75 72 69 69 69 69 69 67
121 120 122 122 122 123 124 123 124 118 117 114 114 112 114 108 104 105 105 106 107 104 98 101 94 86 84 103 114 103 78 85 87 84 74 73 72 72 70 68 61 70 68
125 123 126 125 124 124 123 126 125 126 119 120 121 122 118 113 108 104 107 109 112 114 109 106 96 90 88 102 112 102 92 99 84 83 73 67 72 74 77 77 75 80 81
131 137 134 134 135 130 127 132 130 126 123 127 133 134 131 123 122 118 111 116 124 119 116 111 107 103 108 100 95 88 100 133 98 72 75 83 91 83 78 79 78 77 73
140 140 137 140 147 139 137 138 132 132 133 137 141 148 140 135 125 116 133 124 129 127 123 126 121 124 126 114 93 86 78 108 84 77 87 89 87 89 87 85 82 78 75
133 144 132 148 150 151 138 140 143 134 144 143 155 161 141 162 146 138 146 133 133 130 131 137 141 139 127 220 83 35 89 108 90 90 95 98 89 90 86 82 80 77 74
156 135 141 143 158 140 142 154 159 150 147 141 130 159 149 143 147 144 144 139 137 130 133 153 174 276 305 255 263 89 79 114 113 117 98 95 97 96 92 85 79 75 71
154 149 132 135 126 131 149 166 177 162 153 130 142 130 145 146 152 151 140 151 146 152 188 140 91 100 75 64 108 85 93 100 121 110 103 100 98 99 99 94 88 83 78
148 131 123 126 118 138 128 165 128 112 151 126 118 126 126 144 154 168 161 175 177 174 220 121 138 282 174 117 47 100 104 92 127 137 117 106 95 108 107 104 99 83 80
154 130 130 126 136 132 170 170 130 152 153 137 126 124 140 134 148 143 170 173 150 151 149 116 197 224 238 153 81 29 72 113 91 147 162 148 144 110 113 105 94 81 80
159 141 143 144 148 157 162 171 150 161 138 127 127 109 130 138 142 153 154 134 153 130 132 171 197 210 150 126 155 116 113 91 77 44 237 233 189 196 175 121 56 341 282
163 140 160 161 157 172 162 153 137 163 151 141 132 133 133 155 171 164 156 153 155 170 165 186 214 233 90 126 136 66 94 156 111 184 92 35 325 234 227 218 272 328 292
154 147 181 160 159 169 175 177 172 206 158 147 144 147 147 166 182 179 163 164 177 186 209 211 183 82 167 253 212 165 165 161 344 162 287 230 217 266 261 245 284 299 278
149 155 186 159 160 165 178 198 183 176 199 157 149 152 153 176 196 176 144 181 201 233 160 106 90 22 354 359 329 154 170 272 182 221 210 262 204 233 252 266 311 301 275
158 167 175 166 158 160 179 172 174 195 136 139 137 147 163 171 188 167 156 194 221 190 118 96 109 91 299 26 336 312 185 193 237 157 72 24 79 287 195 263 288 289 317
163 172 170 161 162 175 187 187 191 189 178 136 139 161 165 166 190 189 164 192 219 134 130 147 263 293 262 6 340 338 286 191 98 99 108 63 324 2 345 338 301 288 290
165 173 171 169 174 188 189 196 165 172 197 151 162 165 171 173 185 193 178 204 171 165 164 166 222 294 347 156 12 18 6 16 332 173 150 248 56 165 353 305 295 301 297
167 175 174 179 176 198 203 182 189 182 165 175 174 167 163 172 183 182 189 194 201 201 157 175 194 259 306 330 279 121 86 90 21 334 11 254 218 194 292 15 326 324 284
172 175 171 181 179 195 196 189 188 202 205 174 182 159 162 181 193 189 192 201 223 210 221 187 166 217 275 321 323 10 16 248 228 230 300 329 331 313 262 318 277 323 316
174 177 171 179 185 199 203 198 192 207 199 175 150 158 168 178 199 202 178 190 206 212 234 228 204 219 226 253 271 331 304 320 338 291 312 324 310 317 273 287 277 260 296